Location: El Gallo
(32.4380°N, 116.9347°W)
Time: 19:37:28
(UTC+00:00)

CZ-3 R/B - Pass Details

Date: 01 October 2022
Orbit: 442 x 10146 km, 28.3° (Epoch: 01 December)

Event Time Altitude Azimuth Distance (km) Brightness Sun altitude
Exits shadow 12:30:34 16° 254° (WSW) 7,979 5.5 -15.9°
Maximum altitude 12:50:59 70° 178° (S) 2,074 3.2 -11.6°
Drops below altitude 10° 12:57:53 10° 95° (E) 2,877 5.6 -10.1°
Sets 12:59:34 0° 92° (E) 3,475 6.7 -9.8°
